Regional Weather Roundup
Issued by NWS

Home | Current Version | Previous Version | Graphics & Text | Print | Product List | Glossary On
Versions: 1 2 3 4 5 6 7 8 9 10 11 12 13 14 15 16 17 18 19 20 21 22 23 24 25 26 27 28 29 30 31 32 33 34 35 36 37 38 39 40 41 42 43 44 45 46 47 48 49 50
000
ASUS43 KDTX 180610
RWRMI
MICHIGAN HOURLY REGIONAL WEATHER ROUNDUP
NATIONAL WEATHER SERVICE DETROIT/PONTIAC MI
200 AM EDT WED OCT 18 2017

NOTE: "FAIR" INDICATES FEW OR NO CLOUDS BELOW 12,000 FEET WITH NO
SIGNIFICANT WEATHER AND/OR OBSTRUCTION TO VISIBILITY.

MIZ047>049-052>055-059>063-066>070-074>076-081>083-180700-
SOUTHEAST LOWER MICHIGAN

CITY           SKY/WX    TMP DP  RH WIND       PRES   REMARKS
ADRIAN         CLEAR     48  40  73 CALM      30.22R
6HR MIN TEMP:  46; 6HR MAX TEMP:  56;

ALMA           CLEAR     51  40  64 SW9       30.14S
ANN ARBOR      CLEAR     42  40  92 S3        30.21R
BAD AXE        CLEAR     51  42  71 SW7       30.14S
CARO           CLEAR     49  41  72 SW5       30.14S
DETROIT CITY   CLEAR     55  41  59 SW10      30.20S
6HR MIN TEMP:  54; 6HR MAX TEMP:  62;

DETROIT        PTCLDY    50  42  74 S7        30.22R
6HR MIN TEMP:  49; 6HR MAX TEMP:  59;

FLINT          CLEAR     53  41  63 SW9       30.17S
6HR MIN TEMP:  53; 6HR MAX TEMP:  60;

GROSSE ILE     CLEAR     54  41  62 SW5       30.21S
6HR MIN TEMP:  54; 6HR MAX TEMP:  60;

HILLSDALE      CLEAR     52  37  58 SW8       30.20S
HOWELL         CLEAR     51  41  69 S5        30.18S
6HR MIN TEMP:  51; 6HR MAX TEMP:  59;


CITY           SKY/WX    TMP DP  RH WIND       PRES   REMARKS
JACKSON        CLEAR     52  40  63 SW7       30.20R
6HR MIN TEMP:  52; 6HR MAX TEMP:  59;

LAMBERTVILLE   CLEAR     55  40  57 SW5       30.22R
6HR MIN TEMP:  55; 6HR MAX TEMP:  60;

LANSING        CLEAR     53  39  59 SW10      30.18S
6HR MIN TEMP:  52; 6HR MAX TEMP:  59;

LAPEER         FAIR      50  41  71 SW6       30.17S
6HR MIN TEMP:  48; 6HR MAX TEMP:  60;

MASON          CLEAR     55  40  58 SW3       30.19R
MONROE         CLEAR     52  39  62 SW3       30.21S
6HR MIN TEMP:  52; 6HR MAX TEMP:  59;

MT. CLEMENS    CLEAR     53  42  66 SW7       30.17S
6HR MIN TEMP:  53; 6HR MAX TEMP:  62;

PONTIAC        CLEAR     52  42  69 S3        30.18S
6HR MIN TEMP:  52; 6HR MAX TEMP:  61;

PORT HOPE        N/A     56  42  59 SW8       30.11R
6HR MIN TEMP:  55; 6HR MAX TEMP:  62;

PORT HURON     CLEAR     54  41  62 CALM      30.19R
TRI CITIES     CLEAR     53  44  71 SW10      30.14R
6HR MIN TEMP:  52; 6HR MAX TEMP:  61;

MIDLAND        FAIR      53  42  67 SW5       30.12S
6HR MIN TEMP:  48; 6HR MAX TEMP:  61;

TROY           CLEAR     54  40  60 SW7       30.20S
SAGINAW HB     CLEAR     52  43  71 S10       30.13S
$$
MIZ043>046-050>051-056>058-064>065-071>073-077>080-180700-
SOUTHWEST LOWER MICHIGAN

CITY           SKY/WX    TMP DP  RH WIND       PRES   REMARKS
BATTLE CREEK   CLEAR     50  41  71 SW9       30.19S
6HR MIN TEMP:  50; 6HR MAX TEMP:  56;

BENTON HARBOR  CLEAR     53  39  59 S7        30.18S
6HR MIN TEMP:  53; 6HR MAX TEMP:  61;

BIG RAPIDS     CLEAR     56  46  67 SW7G16    30.11S
6HR MIN TEMP:  47; 6HR MAX TEMP:  58;

COLDWATER      CLEAR     51  39  63 SW7       30.21S
6HR MIN TEMP:  50; 6HR MAX TEMP:  57;

FREMONT        FAIR      52  49  89 SW7       30.12S
HOLLAND        CLEAR     57  46  66 S9        30.16S
6HR MIN TEMP:  57; 6HR MAX TEMP:  63;

GRAND RAPIDS   CLEAR     53  42  66 SW9       30.16S
6HR MIN TEMP:  53; 6HR MAX TEMP:  61;

IONIA          FAIR      51  40  65 S7        30.15S
6HR MIN TEMP:  51; 6HR MAX TEMP:  58;

KALAMAZOO      CLEAR     52  39  61 SW8       30.19S
6HR MIN TEMP:  50; 6HR MAX TEMP:  59;

LUDINGTON      CLEAR     60  49  67 SW9G22    30.08S
6HR MIN TEMP:  54; 6HR MAX TEMP:  61;

MARSHALL       CLEAR     52  39  61 SW7       30.19S
6HR MIN TEMP:  52; 6HR MAX TEMP:  58;

MOUNT PLEASANT CLEAR     57  42  57 SW6       30.11S
6HR MIN TEMP:  56; 6HR MAX TEMP:  61;

MUSKEGON       CLEAR     61  50  67 SW14      30.14S
6HR MIN TEMP:  61; 6HR MAX TEMP:  63;

SOUTH HAVEN    CLEAR     54  40  59 S7        30.17S
$$
MIZ016>042-180700-
NORTHERN LOWER MICHIGAN

CITY           SKY/WX    TMP DP  RH WIND       PRES   REMARKS
ALPENA         CLEAR     40  40 100 CALM      30.09R
6HR MIN TEMP:  39; 6HR MAX TEMP:  53;

BEAVER ISLAND  CLEAR     56  51  84 S5        30.02S
6HR MIN TEMP:  55; 6HR MAX TEMP:  57;

BELLAIRE       CLEAR     41  40  95 CALM      30.07R
6HR MIN TEMP:  41; 6HR MAX TEMP:  55;

CADILLAC       CLEAR     55  45  69 SW9       30.09R
CHARLEVOIX     CLEAR     50  47  90 SE6       30.07S
6HR MIN TEMP:  50; 6HR MAX TEMP:  56;

FRANKFORT      CLEAR     61  53  73 S7G16     30.06R
GAYLORD        CLEAR     47  43  86 SW6       30.07S
6HR MIN TEMP:  46; 6HR MAX TEMP:  54;

GRAYLING       CLEAR     50  44  81 SW5       30.09S
6HR MIN TEMP:  38; 6HR MAX TEMP:  54;

HARBOR SPRINGS CLEAR     50  46  85 W6        30.04F
HOUGHTON LAKE  CLEAR     53  46  77 SW7       30.10S
6HR MIN TEMP:  48; 6HR MAX TEMP:  56;

MANISTEE       CLEAR     46  46 100 NE5       30.07
OSCODA         CLEAR     49  44  83 SW6       30.10S
6HR MIN TEMP:  47; 6HR MAX TEMP:  54;

PELLSTON       CLEAR     38  37  97 CALM      30.04F
6HR MIN TEMP:  37; 6HR MAX TEMP:  52;

ROGERS CITY    CLEAR     49  45  84 S6        30.07S
TRAVERSE CITY  CLEAR     57  47  69 VRB5      30.05R
6HR MIN TEMP:  53; 6HR MAX TEMP:  58;

$$
MIZ007>008-015-180700-
EASTERN UPPER MICHIGAN

CITY           SKY/WX    TMP DP  RH WIND       PRES   REMARKS
KINROSS        CLEAR     48  47  96 S6        30.03F
6HR MIN TEMP:  45; 6HR MAX TEMP:  52;

MACKINAC ISLAN CLEAR     54  47  79 S9        30.02F
6HR MIN TEMP:  53; 6HR MAX TEMP:  57;

NEWBERRY       CLEAR     52  51  97 S7        29.99F
6HR MIN TEMP:  45; 6HR MAX TEMP:  53;

S. S. MARIE    CLEAR     45  43  93 NE6       30.03F
6HR MIN TEMP:  45; 6HR MAX TEMP:  50;

MUNISING         N/A     53  51  93 S7        29.95F
6HR MIN TEMP:  47; 6HR MAX TEMP:  56;

$$
MIZ004>006-011>014-085-180700-
CENTRAL UPPER MICHIGAN

CITY           SKY/WX    TMP DP  RH WIND       PRES   REMARKS
MANISTIQUE     CLEAR     56  50  81 S3        29.98F
6HR MIN TEMP:  55; 6HR MAX TEMP:  56;

ESCANABA       CLEAR     54  51  90 SW6       29.97F
6HR MIN TEMP:  53; 6HR MAX TEMP:  59;

MENOMINEE      CLEAR     56  47  71 SW8       29.99F
6HR MIN TEMP:  54; 6HR MAX TEMP:  59;

SAWYER-GWINN   CLOUDY    47  44  91 S7        29.95F
6HR MIN TEMP:  47; 6HR MAX TEMP:  55;

$$
MIZ001>003-009>011-084-180700-
WESTERN UPPER MICHIGAN

CITY           SKY/WX    TMP DP  RH WIND       PRES   REMARKS
IRON MOUNTAIN  CLEAR     49  42  77 SE5       29.95F
6HR MIN TEMP:  46; 6HR MAX TEMP:  56;

HOUGHTON       CLEAR     47  40  76 CALM      29.87F
6HR MIN TEMP:  45; 6HR MAX TEMP:  55;

COPPER HARBOR    N/A     54  46  74 SW8       29.87F
6HR MIN TEMP:  51; 6HR MAX TEMP:  55;

IRONWOOD       CLEAR     57  44  62 S10       29.88F
6HR MIN TEMP:  56; 6HR MAX TEMP:  62;

$$

ABBREVIATIONS USED IN REMARKS
   TC - TEMPERATURE IN CELSIUS
  WCI - WIND CHILL INDEX
   HX - HEAT INDEX
  VSB - VISIBILITY




USA.gov is the U.S. government's official web portal to all federal, state and local government web resources and services.